Home > Weather > Oruro > Past weeks

Flag for Bolivia Past Weather in Oruro, Bolivia — Yesterday and Last 2 Weeks

Now
48 °F

Partly cloudy.


Feels Like: 48 °F
Forecast: 30 / 52 °F
Wind: No wind

Location: Cochabamba Airport

Current Time: Jun 28, 2016 at 5:51:25 AM

Latest Report: Jun 28, 2016 at 5:00 AM


Visibility: N/A

Pressure: 30.33 "Hg (19.32 "Hg at 3722m altitude)

Humidity: 71%

Dew Point: 39 °F

Location of OruroLocation

Past Weather in Oruro — Graph

°F

Oruro Temperature Yesterday

Maximum temperature yesterday: 75 °F (at 2:00 PM)
Minimum temperature yesterday: 43 °F (at 5:00 AM)
Average temperature yesterday: 59 °F

High & Low Weather Summary for the Past Weeks

 TemperatureHumidityPressure
High81 °F (Jun 13, 3:00 PM)76% (Jun 17, 6:00 AM)30.48 "Hg (Jun 17, 6:00 AM)
Low39 °F (Jun 19, 7:00 AM)5% (Jun 22, 5:00 PM)30.07 "Hg (Jun 24, 3:00 PM)
Average59 °F39%30.28 "Hg
* Reported Jun 13 4:00 AM — Jun 28 4:00 AM, Oruro, Weather by CustomWeather, © 2016

Note: Actual official high and low records may vary slightly from our data, if they occured in-between our weather recording intervals... More about our weather records

Advertising

Oruro Weather History for the Previous 24 Hours

Scroll right to see more
 ConditionsComfort  
Time TempWeatherWind HumidityBarometerVisibility
4:00 AM
Tue, Jun 28
50 °FPartly cloudy.No wind67%30.33 "HgN/A
3:00 AM50 °FPartly cloudy.No wind67%30.33 "HgN/A
2:00 AM54 °FPassing clouds.No wind58%30.33 "HgN/A
1:00 AM57 °FPassing clouds.3 mph51%30.33 "HgN/A
12:00 AM59 °FPassing clouds.7 mph48%30.33 "HgN/A
11:00 PM
Mon, Jun 27
57 °FClear.9 mph48%30.30 "HgN/A
10:00 PM55 °FClear.3 mph55%30.30 "HgN/A
9:00 PM59 °FPassing clouds.3 mph45%30.27 "HgN/A
8:00 PM64 °FPassing clouds.7 mph37%30.24 "HgN/A
7:00 PM66 °FPassing clouds.14 mph35%30.24 "HgN/A
6:00 PM68 °FPassing clouds.8 mph30%30.21 "HgN/A
5:00 PM73 °FScattered clouds.6 mph20%30.18 "HgN/A
4:00 PM73 °FScattered clouds.6 mph22%30.21 "HgN/A
3:00 PM73 °FPassing clouds.7 mph23%30.21 "HgN/A
2:00 PM75 °FPassing clouds.5 mph24%30.24 "HgN/A
1:00 PM72 °FPassing clouds.5 mph31%30.30 "HgN/A
12:00 PM70 °FPassing clouds.5 mph31%30.33 "HgN/A
11:00 AM66 °FPassing clouds.No wind37%30.36 "HgN/A
10:00 AM63 °FPassing clouds.No wind42%30.39 "HgN/A
9:00 AM57 °FPassing clouds.No wind55%30.39 "HgN/A
8:00 AM48 °FPassing clouds.No wind66%30.39 "HgN/A
7:00 AM45 °FPassing clouds.No wind76%30.36 "Hg6 mi
6:00 AM46 °FClear.3 mph71%30.33 "HgN/A
5:00 AM43 °FClear.3 mph76%30.33 "HgN/A
Weather by CustomWeather, © 2016

See weather overviewHow to use our weather pages